Home > Weather > Ljubljana > Past weeks

Flag for Slovenia Past Weather in Ljubljana, Slovenia — Yesterday and Last 2 Weeks

Now
83 °F

Passing clouds.


Feels Like: 84 °F
Forecast: 64 / 81 °F
Wind: 2 mph from East

Location: Ljubljana / Bezigrad

Current Time: Jul 24, 2016 at 12:54:47 PM

Latest Report: Jul 24, 2016 at 12:00 PM


Visibility: 19 mi

Pressure: 29.98 "Hg

Humidity: 50%

Dew Point: 63 °F

Location of LjubljanaLocation

Past Weather in Ljubljana — Graph

°F

Ljubljana Temperature Yesterday

Maximum temperature yesterday: 90 °F (at 3:00 PM)
Minimum temperature yesterday: 66 °F (at 6:00 AM)
Average temperature yesterday: 78 °F

High & Low Weather Summary for the Past Weeks

 TemperatureHumidityPressure
High92 °F (Jul 11, 5:00 PM)96% (Jul 23, 6:00 AM)30.18 "Hg (Jul 23, 6:00 AM)
Low57 °F (Jul 16, 5:00 AM)32% (Jul 11, 5:00 PM)29.71 "Hg (Jul 13, 3:00 PM)
Average73 °F63%29.98 "Hg
* Reported Jul 9 11:00 AM — Jul 24 11:00 AM, Ljubljana, Weather by CustomWeather, © 2016

Note: Actual official high and low records may vary slightly from our data, if they occured in-between our weather recording intervals... More about our weather records

Advertising

Ljubljana Weather History for the Previous 24 Hours

Scroll right to see more
 ConditionsComfort  
Time TempWeatherWind HumidityBarometerVisibility
11:00 AM
Sun, Jul 24
81 °FPassing clouds.1 mph55%29.98 "Hg19 mi
10:00 AM78 °FPassing clouds.1 mph59%30.00 "Hg19 mi
9:00 AM75 °FPassing clouds.1 mph64%30.01 "Hg19 mi
8:00 AM71 °FPassing clouds.1 mph73%30.01 "Hg19 mi
7:00 AM68 °FPassing clouds.1 mph80%30.01 "Hg19 mi
6:00 AM67 °FPassing clouds.1 mph85%30.01 "Hg19 mi
5:00 AM67 °FMild.No wind84%30.01 "HgN/A
4:00 AM69 °FMild.1 mph81%30.00 "HgN/A
3:00 AM69 °FMild.No wind80%30.00 "HgN/A
2:00 AM73 °FMild.2 mph73%29.99 "HgN/A
1:00 AM73 °FMild.1 mph71%29.99 "HgN/A
12:00 AM75 °FMild.1 mph69%29.98 "HgN/A
11:00 PM
Sat, Jul 23
76 °FMild.2 mph64%29.99 "HgN/A
10:00 PM78 °FPassing clouds.2 mph58%29.98 "Hg12 mi
9:00 PM80 °FPassing clouds.1 mph51%29.96 "Hg19 mi
8:00 PM83 °FPassing clouds.3 mph43%29.94 "Hg19 mi
7:00 PM85 °FPleasantly warm.3 mph38%29.93 "HgN/A
6:00 PM86 °FPleasantly warm.3 mph39%29.93 "HgN/A
5:00 PM89 °FHot.3 mph38%29.93 "HgN/A
4:00 PM90 °FHot.5 mph36%29.93 "HgN/A
3:00 PM90 °FScattered clouds.2 mph38%29.93 "Hg19 mi
2:00 PM89 °FPassing clouds.2 mph35%29.94 "Hg19 mi
1:00 PM87 °FPassing clouds.1 mph39%29.95 "Hg19 mi
12:00 PM84 °FPassing clouds.1 mph45%29.96 "Hg19 mi
Weather by CustomWeather, © 2016

See weather overviewHow to use our weather pages